Time,TemperatureF,DewpointF,PressureIn,WindDirection,WindDirectionDegrees,WindSpeedMPH,WindSpeedGustMPH,Humidity,HourlyPrecipIn,Conditions,Clouds,dailyrainin,SoftwareType,DateUTC
2013-05-13 00:01:00,53.0,-99.9,-100.00,NNW,337,0.0,0.0,-999,0.00,,,-99.99,,2013-05-13 06:01:00,
2013-05-13 00:12:00,51.0,-99.9,-100.00,NW,315,0.0,1.0,-999,0.00,,,-99.99,,2013-05-13 06:12:00,
2013-05-13 00:22:00,51.0,-99.9,-100.00,NW,315,0.0,1.0,-999,0.00,,,-99.99,,2013-05-13 06:22:00,
2013-05-13 00:32:00,52.0,-99.9,-100.00,West,281,1.0,3.0,-999,0.00,,,-99.99,,2013-05-13 06:32:00,
2013-05-13 00:42:00,52.0,-99.9,-100.00,NW,322,0.0,1.0,-999,0.00,,,-99.99,,2013-05-13 06:42:00,
2013-05-13 00:52:00,52.0,-99.9,-100.00,NW,322,0.0,1.0,-999,0.00,,,-99.99,,2013-05-13 06:52:00,
2013-05-13 01:02:00,51.0,-99.9,-100.00,SW,236,0.0,0.0,-999,0.00,,,-99.99,,2013-05-13 07:02:00,
2013-05-13 01:11:00,51.0,-99.9,-100.00,SW,236,0.0,0.0,-999,0.00,,,-99.99,,2013-05-13 07:11:00,
2013-05-13 01:22:00,51.0,-99.9,-100.00,WNW,300,2.0,3.0,-999,0.00,,,-99.99,,2013-05-13 07:22:00,
2013-05-13 01:32:00,52.0,-99.9,-100.00,NNW,337,1.0,2.0,-999,0.00,,,-99.99,,2013-05-13 07:32:00,
2013-05-13 01:42:00,52.0,-99.9,-100.00,West,279,0.0,1.0,-999,0.00,,,-99.99,,2013-05-13 07:42:00,
2013-05-13 01:52:00,52.0,-99.9,-100.00,West,279,0.0,1.0,-999,0.00,,,-99.99,,2013-05-13 07:52:00,
2013-05-13 02:02:00,51.0,-99.9,-100.00,West,270,1.0,3.0,-999,0.00,,,-99.99,,2013-05-13 08:02:00,
2013-05-13 02:11:00,50.0,-99.9,-100.00,WSW,240,0.0,2.0,-999,0.00,,,-99.99,,2013-05-13 08:11:00,
2013-05-13 02:22:00,50.0,-99.9,-100.00,WSW,240,0.0,2.0,-999,0.00,,,-99.99,,2013-05-13 08:22:00,
2013-05-13 02:32:00,50.0,-99.9,-100.00,SSE,167,0.0,2.0,-999,0.00,,,-99.99,,2013-05-13 08:32:00,
2013-05-13 02:42:00,50.0,-99.9,-100.00,SSE,167,0.0,2.0,-999,0.00,,,-99.99,,2013-05-13 08:42:00,
2013-05-13 02:52:00,50.0,-99.9,-100.00,ESE,112,1.0,3.0,-999,0.00,,,-99.99,,2013-05-13 08:52:00,
2013-05-13 03:01:00,50.0,-99.9,-100.00,North,351,1.0,3.0,-999,0.00,,,-99.99,,2013-05-13 09:01:00,
2013-05-13 03:11:00,49.0,-99.9,-100.00,WNW,285,1.0,3.0,-999,0.00,,,-99.99,,2013-05-13 09:11:00,
2013-05-13 03:22:00,49.0,-99.9,-100.00,WNW,285,1.0,3.0,-999,0.00,,,-99.99,,2013-05-13 09:22:00,
2013-05-13 03:33:00,49.0,-99.9,-100.00,NE,45,0.0,3.0,-999,0.00,,,-99.99,,2013-05-13 09:33:00,
2013-05-13 03:42:00,49.0,-99.9,-100.00,NE,45,0.0,3.0,-999,0.00,,,-99.99,,2013-05-13 09:42:00,
2013-05-13 03:52:00,49.0,-99.9,-100.00,NNW,337,1.0,3.0,-999,0.00,,,-99.99,,2013-05-13 09:52:00,
2013-05-13 04:03:00,49.0,-99.9,-100.00,NE,45,1.0,3.0,-999,0.00,,,-99.99,,2013-05-13 10:03:00,
2013-05-13 04:12:00,49.0,-99.9,-100.00,NE,45,1.0,3.0,-999,0.00,,,-99.99,,2013-05-13 10:12:00,
2013-05-13 04:22:00,49.0,-99.9,-100.00,SE,135,1.0,4.0,-999,0.00,,,-99.99,,2013-05-13 10:22:00,
2013-05-13 04:33:00,48.0,-99.9,-100.00,ENE,78,2.0,3.0,-999,0.00,,,-99.99,,2013-05-13 10:33:00,
2013-05-13 04:43:00,48.0,-99.9,-100.00,ENE,78,2.0,3.0,-999,0.00,,,-99.99,,2013-05-13 10:43:00,
2013-05-13 04:53:00,47.0,-99.9,-100.00,West,274,0.0,1.0,-999,0.00,,,-99.99,,2013-05-13 10:53:00,
2013-05-13 05:03:00,48.0,-99.9,-100.00,SSW,193,0.0,3.0,-999,0.00,,,-99.99,,2013-05-13 11:03:00,
2013-05-13 05:12:00,47.0,-99.9,-100.00,North,352,0.0,1.0,-999,0.00,,,-99.99,,2013-05-13 11:12:00,
2013-05-13 05:22:00,47.0,-99.9,-100.00,North,352,0.0,1.0,-999,0.00,,,-99.99,,2013-05-13 11:22:00,
2013-05-13 05:32:00,47.0,-99.9,-100.00,SE,135,0.0,2.0,-999,0.00,,,-99.99,,2013-05-13 11:32:00,
2013-05-13 05:42:00,47.0,-99.9,-100.00,SE,135,0.0,2.0,-999,0.00,,,-99.99,,2013-05-13 11:42:00,
2013-05-13 05:52:00,47.0,-99.9,-100.00,NNE,22,1.0,2.0,-999,0.00,,,-99.99,,2013-05-13 11:52:00,
2013-05-13 06:02:00,47.0,-99.9,-100.00,NNW,337,1.0,2.0,-999,0.00,,,-99.99,,2013-05-13 12:02:00,
2013-05-13 06:12:00,47.0,-99.9,-100.00,NNW,337,1.0,2.0,-999,0.00,,,-99.99,,2013-05-13 12:12:00,
2013-05-13 06:22:00,46.0,-99.9,-100.00,NW,315,1.0,3.0,-999,0.00,,,-99.99,,2013-05-13 12:22:00,
2013-05-13 06:32:00,45.0,-99.9,-100.00,SSE,148,0.0,3.0,-999,0.00,,,-99.99,,2013-05-13 12:32:00,
2013-05-13 06:42:00,45.0,-99.9,-100.00,SSE,148,0.0,3.0,-999,0.00,,,-99.99,,2013-05-13 12:42:00,
2013-05-13 06:52:00,45.0,-99.9,-100.00,North,2,0.0,0.0,-999,0.00,,,-99.99,,2013-05-13 12:52:00,
2013-05-13 07:01:00,45.0,-99.9,-100.00,East,90,0.0,1.0,-999,0.00,,,-99.99,,2013-05-13 13:01:00,
2013-05-13 07:11:00,45.0,-99.9,-100.00,East,90,0.0,1.0,-999,0.00,,,-99.99,,2013-05-13 13:11:00,
2013-05-13 07:22:00,47.0,-99.9,-100.00,NE,45,0.0,1.0,-999,0.00,,,-99.99,,2013-05-13 13:22:00,
2013-05-13 07:32:00,48.0,-99.9,-100.00,NNW,337,1.0,3.0,-999,0.00,,,-99.99,,2013-05-13 13:32:00,
2013-05-13 07:42:00,49.0,-99.9,-100.00,SE,130,0.0,1.0,-999,0.00,,,-99.99,,2013-05-13 13:42:00,
2013-05-13 07:52:00,49.0,-99.9,-100.00,SE,130,0.0,1.0,-999,0.00,,,-99.99,,2013-05-13 13:52:00,
2013-05-13 08:02:00,53.0,-99.9,-100.00,SE,146,3.0,5.0,-999,0.00,,,-99.99,,2013-05-13 14:02:00,
2013-05-13 08:11:00,53.0,-99.9,-100.00,SE,146,3.0,5.0,-999,0.00,,,-99.99,,2013-05-13 14:11:00,
2013-05-13 08:32:00,58.0,-99.9,-100.00,SSW,196,1.0,4.0,-999,0.00,,,-99.99,,2013-05-13 14:32:00,
2013-05-13 08:42:00,61.0,-99.9,-100.00,South,178,2.0,4.0,-999,0.00,,,-99.99,,2013-05-13 14:42:00,
2013-05-13 09:01:00,62.0,-99.9,-100.00,SE,141,3.0,5.0,-999,0.00,,,-99.99,,2013-05-13 15:01:00,
2013-05-13 09:11:00,63.0,-99.9,-100.00,SW,221,1.0,4.0,-999,0.00,,,-99.99,,2013-05-13 15:11:00,
2013-05-13 09:32:00,64.0,-99.9,-100.00,SSW,198,1.0,3.0,-999,0.00,,,-99.99,,2013-05-13 15:32:00,
2013-05-13 09:42:00,64.0,-99.9,-100.00,SE,141,1.0,5.0,-999,0.00,,,-99.99,,2013-05-13 15:42:00,
2013-05-13 10:03:00,66.0,-99.9,-100.00,NW,326,2.0,4.0,-999,0.00,,,-99.99,,2013-05-13 16:03:00,
2013-05-13 10:12:00,68.0,-99.9,-100.00,SW,227,0.0,3.0,-999,0.00,,,-99.99,,2013-05-13 16:12:00,
2013-05-13 10:22:00,68.0,-99.9,-100.00,SW,227,0.0,3.0,-999,0.00,,,-99.99,,2013-05-13 16:22:00,
2013-05-13 10:34:00,69.0,-99.9,-100.00,SSE,161,3.0,5.0,-999,0.00,,,-99.99,,2013-05-13 16:34:00,
2013-05-13 10:43:00,70.0,-99.9,-100.00,South,169,2.0,3.0,-999,0.00,,,-99.99,,2013-05-13 16:43:00,
2013-05-13 10:53:00,70.0,-99.9,-100.00,South,169,2.0,3.0,-999,0.00,,,-99.99,,2013-05-13 16:53:00,
2013-05-13 11:02:00,73.0,-99.9,-100.00,NNW,337,0.0,1.0,-999,0.00,,,-99.99,,2013-05-13 17:02:00,
2013-05-13 11:32:00,77.0,-99.9,-100.00,SW,235,1.0,3.0,-999,0.00,,,-99.99,,2013-05-13 17:32:00,
2013-05-13 11:42:00,79.0,-99.9,-100.00,WSW,243,0.0,2.0,-999,0.00,,,-99.99,,2013-05-13 17:42:00,
2013-05-13 12:04:00,81.0,-99.9,-100.00,NW,315,1.0,2.0,-999,0.00,,,-99.99,,2013-05-13 18:04:00,
2013-05-13 12:23:00,81.0,-99.9,-100.00,SSE,148,1.0,3.0,-999,0.00,,,-99.99,,2013-05-13 18:23:00,
2013-05-13 12:32:00,83.0,-99.9,-100.00,WNW,283,0.0,2.0,-999,0.00,,,-99.99,,2013-05-13 18:32:00,
2013-05-13 12:43:00,84.0,-99.9,-100.00,WNW,287,0.0,3.0,-999,0.00,,,-99.99,,2013-05-13 18:43:00,
2013-05-13 13:01:00,84.0,-99.9,-100.00,NW,316,3.0,5.0,-999,0.00,,,-99.99,,2013-05-13 19:01:00,
2013-05-13 13:22:00,83.0,-99.9,-100.00,NW,315,3.0,6.0,-999,0.00,,,-99.99,,2013-05-13 19:22:00,
2013-05-13 13:33:00,84.0,-99.9,-100.00,NW,315,1.0,7.0,-999,0.00,,,-99.99,,2013-05-13 19:33:00,
2013-05-13 13:44:00,83.0,-99.9,-100.00,WNW,292,2.0,5.0,-999,0.00,,,-99.99,,2013-05-13 19:44:00,
2013-05-13 13:53:00,83.0,-99.9,-100.00,WNW,292,2.0,5.0,-999,0.00,,,-99.99,,2013-05-13 19:53:00,
2013-05-13 14:02:00,84.0,-99.9,-100.00,WNW,299,3.0,6.0,-999,0.00,,,-99.99,,2013-05-13 20:02:00,
2013-05-13 14:11:00,84.0,-99.9,-100.00,WNW,295,3.0,4.0,-999,0.00,,,-99.99,,2013-05-13 20:11:00,
2013-05-13 14:23:00,84.0,-99.9,-100.00,WNW,295,3.0,4.0,-999,0.00,,,-99.99,,2013-05-13 20:23:00,
2013-05-13 14:34:00,83.0,-99.9,-100.00,WNW,289,2.0,10.0,-999,0.00,,,-99.99,,2013-05-13 20:34:00,
2013-05-13 14:44:00,84.0,-99.9,-100.00,NW,315,5.0,9.0,-999,0.00,,,-99.99,,2013-05-13 20:44:00,
2013-05-13 14:53:00,84.0,-99.9,-100.00,NW,315,5.0,9.0,-999,0.00,,,-99.99,,2013-05-13 20:53:00,
2013-05-13 15:03:00,84.0,-99.9,-100.00,WNW,287,2.0,3.0,-999,0.00,,,-99.99,,2013-05-13 21:03:00,
2013-05-13 15:14:00,84.0,-99.9,-100.00,WNW,287,2.0,3.0,-999,0.00,,,-99.99,,2013-05-13 21:14:00,
2013-05-13 15:23:00,85.0,-99.9,-100.00,NW,304,5.0,9.0,-999,0.00,,,-99.99,,2013-05-13 21:23:00,
2013-05-13 15:34:00,85.0,-99.9,-100.00,WNW,285,2.0,9.0,-999,0.00,,,-99.99,,2013-05-13 21:34:00,
2013-05-13 15:44:00,85.0,-99.9,-100.00,WNW,285,2.0,9.0,-999,0.00,,,-99.99,,2013-05-13 21:44:00,
2013-05-13 15:53:00,85.0,-99.9,-100.00,WNW,282,2.0,7.0,-999,0.00,,,-99.99,,2013-05-13 21:53:00,
2013-05-13 16:03:00,85.0,-99.9,-100.00,NW,311,6.0,8.0,-999,0.00,,,-99.99,,2013-05-13 22:03:00,
2013-05-13 16:12:00,85.0,-99.9,-100.00,NW,311,6.0,8.0,-999,0.00,,,-99.99,,2013-05-13 22:12:00,
2013-05-13 16:23:00,85.0,-99.9,-100.00,WNW,297,1.0,5.0,-999,0.00,,,-99.99,,2013-05-13 22:23:00,
2013-05-13 16:32:00,85.0,-99.9,-100.00,WNW,287,4.0,5.0,-999,0.00,,,-99.99,,2013-05-13 22:32:00,
2013-05-13 16:43:00,86.0,-99.9,-100.00,NW,315,0.0,6.0,-999,0.00,,,-99.99,,2013-05-13 22:43:00,
2013-05-13 16:52:00,86.0,-99.9,-100.00,NW,315,0.0,6.0,-999,0.00,,,-99.99,,2013-05-13 22:52:00,
2013-05-13 17:02:00,87.0,-99.9,-100.00,NW,306,1.0,2.0,-999,0.00,,,-99.99,,2013-05-13 23:02:00,
2013-05-13 17:13:00,87.0,-99.9,-100.00,NW,306,1.0,2.0,-999,0.00,,,-99.99,,2013-05-13 23:13:00,
2013-05-13 17:23:00,86.0,-99.9,-100.00,WNW,299,2.0,7.0,-999,0.00,,,-99.99,,2013-05-13 23:23:00,
2013-05-13 17:34:00,87.0,-99.9,-100.00,NW,318,1.0,2.0,-999,0.00,,,-99.99,,2013-05-13 23:34:00,
2013-05-13 17:42:00,87.0,-99.9,-100.00,NW,318,1.0,2.0,-999,0.00,,,-99.99,,2013-05-13 23:42:00,
2013-05-13 17:54:00,86.0,-99.9,-100.00,NW,315,2.0,5.0,-999,0.00,,,-99.99,,2013-05-13 23:54:00,
2013-05-13 18:03:00,86.0,-99.9,-100.00,WNW,293,2.0,5.0,-999,0.00,,,-99.99,,2013-05-14 00:03:00,
2013-05-13 18:13:00,85.0,-99.9,-100.00,NW,315,1.0,4.0,-999,0.00,,,-99.99,,2013-05-14 00:13:00,
2013-05-13 18:23:00,85.0,-99.9,-100.00,NW,315,1.0,4.0,-999,0.00,,,-99.99,,2013-05-14 00:23:00,
2013-05-13 18:32:00,84.0,-99.9,-100.00,WNW,299,2.0,5.0,-999,0.00,,,-99.99,,2013-05-14 00:32:00,
2013-05-13 18:42:00,84.0,-99.9,-100.00,WNW,299,2.0,5.0,-999,0.00,,,-99.99,,2013-05-14 00:42:00,
2013-05-13 18:52:00,83.0,-99.9,-100.00,NW,304,1.0,6.0,-999,0.00,,,-99.99,,2013-05-14 00:52:00,
2013-05-13 19:02:00,81.0,-99.9,-100.00,WNW,288,3.0,5.0,-999,0.00,,,-99.99,,2013-05-14 01:02:00,
2013-05-13 19:11:00,81.0,-99.9,-100.00,WNW,288,3.0,5.0,-999,0.00,,,-99.99,,2013-05-14 01:11:00,
2013-05-13 19:21:00,79.0,-99.9,-100.00,NW,315,2.0,5.0,-999,0.00,,,-99.99,,2013-05-14 01:21:00,
2013-05-13 19:32:00,76.0,-99.9,-100.00,NW,316,0.0,7.0,-999,0.00,,,-99.99,,2013-05-14 01:32:00,
2013-05-13 19:43:00,76.0,-99.9,-100.00,NW,316,0.0,7.0,-999,0.00,,,-99.99,,2013-05-14 01:43:00,
2013-05-13 19:53:00,74.0,-99.9,-100.00,NW,315,0.0,1.0,-999,0.00,,,-99.99,,2013-05-14 01:53:00,
2013-05-13 20:03:00,71.0,-99.9,-100.00,SW,236,0.0,0.0,-999,0.00,,,-99.99,,2013-05-14 02:03:00,
2013-05-13 20:12:00,69.0,-99.9,-100.00,North,352,0.0,1.0,-999,0.00,,,-99.99,,2013-05-14 02:12:00,
2013-05-13 20:32:00,68.0,-99.9,-100.00,NNE,22,0.0,0.0,-999,0.00,,,-99.99,,2013-05-14 02:32:00,
2013-05-13 20:52:00,67.0,-99.9,-100.00,SW,225,0.0,2.0,-999,0.00,,,-99.99,,2013-05-14 02:52:00,
2013-05-13 21:01:00,67.0,-99.9,-100.00,NNW,337,0.0,2.0,-999,0.00,,,-99.99,,2013-05-14 03:01:00,
2013-05-13 21:11:00,65.0,-99.9,-100.00,ESE,123,1.0,2.0,-999,0.00,,,-99.99,,2013-05-14 03:11:00,
2013-05-13 21:22:00,65.0,-99.9,-100.00,ESE,123,1.0,2.0,-999,0.00,,,-99.99,,2013-05-14 03:22:00,
2013-05-13 21:33:00,64.0,-99.9,-100.00,ESE,112,0.0,0.0,-999,0.00,,,-99.99,,2013-05-14 03:33:00,
2013-05-13 21:43:00,64.0,-99.9,-100.00,ESE,112,0.0,0.0,-999,0.00,,,-99.99,,2013-05-14 03:43:00,
2013-05-13 21:53:00,63.0,-99.9,-100.00,NW,315,0.0,1.0,-999,0.00,,,-99.99,,2013-05-14 03:53:00,
2013-05-13 22:03:00,62.0,-99.9,-100.00,NNW,346,0.0,2.0,-999,0.00,,,-99.99,,2013-05-14 04:03:00,
2013-05-13 22:13:00,62.0,-99.9,-100.00,NNW,346,0.0,2.0,-999,0.00,,,-99.99,,2013-05-14 04:13:00,
2013-05-13 22:23:00,62.0,-99.9,-100.00,ESE,108,1.0,2.0,-999,0.00,,,-99.99,,2013-05-14 04:23:00,
2013-05-13 22:33:00,62.0,-99.9,-100.00,WNW,292,1.0,2.0,-999,0.00,,,-99.99,,2013-05-14 04:33:00,
2013-05-13 22:43:00,62.0,-99.9,-100.00,WNW,292,1.0,2.0,-999,0.00,,,-99.99,,2013-05-14 04:43:00,
2013-05-13 22:53:00,61.0,-99.9,-100.00,SSW,210,1.0,2.0,-999,0.00,,,-99.99,,2013-05-14 04:53:00,
2013-05-13 23:02:00,61.0,-99.9,-100.00,NNW,337,0.0,1.0,-999,0.00,,,-99.99,,2013-05-14 05:02:00,
2013-05-13 23:12:00,59.0,-99.9,-100.00,West,270,0.0,2.0,-999,0.00,,,-99.99,,2013-05-14 05:12:00,
2013-05-13 23:22:00,59.0,-99.9,-100.00,West,270,0.0,2.0,-999,0.00,,,-99.99,,2013-05-14 05:22:00,
2013-05-13 23:32:00,58.0,-99.9,-100.00,ENE,67,0.0,1.0,-999,0.00,,,-99.99,,2013-05-14 05:32:00,
2013-05-13 23:42:00,58.0,-99.9,-100.00,SSW,202,1.0,2.0,-999,0.00,,,-99.99,,2013-05-14 05:42:00,
2013-05-13 23:53:00,58.0,-99.9,-100.00,SSW,202,1.0,2.0,-999,0.00,,,-99.99,,2013-05-14 05:53:00,